Temperature
15 15 15 15 14 14 14 13 13 13 13 14 14 15 15 15 16 16 16 16 15 15 15 15 15 15 15 15 15 15 15 15 15 15 15 15 16 16
15 15 15 15 14 14 14 14 13 13 13 13 14 14 14 14 14 15 15 15 15 15 15 15 14 15 15 14 14 14 15 15 15 15 15 15 15 15
15 14 15 15 14 14 14 14 14 13 13 13 13 13 13 13 13 14 14 14 14 14 14 14 14 14 14 14 14 14 14 14 14 14 14 14 15 15
14 14 14 14 14 14 14 14 14 14 13 13 13 13 13 13 13 13 13 13 13 13 13 13 13 13 13 13 13 13 13 13 13 14 14 14 14 14
14 14 14 14 14 14 14 14 14 14 13 13 13 13 13 12 12 12 12 12 12 12 12 12 12 12 12 12 12 12 13 13 13 13 13 13 13 13
13 13 13 14 14 14 14 14 14 14 13 13 13 13 12 12 12 11 11 11 11 11 11 12 12 12 12 12 12 12 12 12 12 12 13 13 13 13
12 13 13 13 13 14 14 14 14 13 13 13 13 12 12 12 11 11 11 11 10 11 11 11 11 11 11 11 11 11 11 11 12 12 12 12 12 12
11 12 13 13 13 14 14 14 14 13 13 13 12 12 12 12 11 11 11 11 10 10 11 10 10 10 10 10 10 10 10 11 11 11 11 11 11 11
11 11 12 13 13 13 14 14 13 13 13 13 13 12 12 12 11 11 11 11 11 10 10 10 10 10 10 10 9 9 9 9 9 9 9 9 9 10
10 11 11 12 13 13 13 13 13 13 12 12 13 13 13 12 12 11 11 11 10 10 10 10 9 9 9 9 8 8 8 8 8 8 8 8 8 8
10 10 11 12 12 12 12 12 12 12 12 12 12 12 12 11 11 11 10 10 9 9 9 10 9 9 8 8 8 8 8 7 7 7 7 7 7 7
9 10 10 11 12 12 12 12 12 12 11 11 11 11 11 11 11 11 11 10 10 9 9 10 9 9 8 8 8 8 7 7 7 7 7 7 7 7
9 9 10 10 11 11 12 12 12 12 11 11 11 11 11 11 11 11 11 11 11 10 10 10 9 9 9 8 8 8 7 7 7 7 7 7 7 7
9 9 10 10 11 11 11 11 11 11 11 11 11 11 11 11 11 11 11 11 11 11 11 10 10 10 9 9 8 8 8 7 7 7 7 7 7 7
8 9 9 10 10 10 11 11 11 11 11 11 10 10 11 11 11 10 11 11 11 11 11 11 11 10 10 10 9 8 8 7 7 7 7 7 7 7
8 8 9 9 9 10 10 10 11 11 11 11 10 10 10 10 10 11 11 11 11 10 10 11 11 10 10 10 9 9 8 8 8 7 7 7 7 7
8 8 8 8 9 9 10 10 10 10 10 10 10 10 10 10 10 10 10 11 11 10 10 10 10 10 10 10 9 9 8 8 8 8 8 8 7 7
8 8 8 8 8 9 9 10 10 10 10 10 10 10 10 10 10 10 10 10 10 10 10 10 10 10 9 9 9 9 9 8 8 8 8 8 8 8
7 7 7 8 8 9 9 10 10 10 10 10 10 10 10 10 10 10 10 10 10 10 10 10 10 10 9 9 9 9 9 9 9 8 8 8 8 8
7 7 7 8 8 9 9 10 10 10 10 10 10 10 10 10 9 9 9 9 9 9 9 9 9 9 10 10 9 9 9 9 9 9 9 9 8 8
7 7 7 8 8 9 10 10 10 10 11 11 10 10 10 10 9 9 9 9 9 9 9 9 9 9 10 10 9 9 9 9 9 9 9 9 9 9
7 7 7 8 8 9 10 10 10 11 10 10 10 10 10 10 9 9 9 9 9 9 10 10 9 9 10 10 10 10 10 10 9 9 9 9 9 9
7 7 8 8 9 10 10 10 11 11 10 10 10 10 10 10 10 10 10 10 10 10 10 10 10 9 9 10 10 10 10 10 10 10 10 10 9 9
Wind_Speed
7 7 6 5 5 5 5 5 4 3 2 2 1 2 3 5 8 9 10 14 15 16 15 14 14 14 14 13 13 13 13 12 12 10 9 6 3 5
6 7 7 5 5 5 5 5 6 5 4 2 1 3 5 6 10 10 13 16 16 17 17 16 16 15 15 15 15 15 14 14 14 14 14 14 13 10
8 8 8 6 5 5 4 4 5 6 6 3 2 4 6 10 9 10 12 11 13 16 17 16 16 16 16 16 16 15 15 16 16 16 16 16 16 16
9 9 9 7 7 5 4 5 5 6 5 5 3 4 6 11 11 10 8 10 11 15 17 17 16 17 17 17 17 17 17 17 17 17 18 18 18 19
9 9 9 8 8 6 5 5 5 5 5 6 5 4 6 10 11 10 10 8 10 14 16 16 17 17 17 18 18 18 18 19 19 19 19 20 20 20
8 9 9 9 9 8 6 6 5 5 6 7 8 8 8 9 10 10 9 7 8 9 11 14 17 18 17 18 18 19 19 20 20 21 21 21 21 21
7 7 9 11 11 9 7 6 6 5 7 8 10 8 9 11 10 7 11 10 7 5 7 6 7 8 11 14 16 17 18 19 20 21 21 22 22 22
7 6 7 10 11 11 11 10 9 9 10 9 8 11 11 11 10 12 12 11 5 3 5 5 4 6 5 9 12 15 16 17 18 19 20 21 21 21
8 7 7 8 9 7 7 6 7 11 12 10 12 12 12 13 13 12 10 7 6 7 6 5 3 4 4 8 11 13 14 15 15 16 17 18 19 19
8 8 8 8 9 9 7 5 4 5 9 9 10 11 13 13 12 11 11 9 8 6 4 4 3 3 3 4 7 10 12 13 13 14 15 15 16 16
8 8 8 10 13 13 9 8 6 5 8 12 14 15 17 17 14 12 11 12 10 5 2 4 4 3 2 1 1 5 7 9 10 11 12 13 12 12
7 7 10 11 15 15 11 11 11 9 10 13 14 15 14 14 14 11 12 13 10 5 4 4 5 4 3 1 1 2 2 3 4 6 8 10 10 8
6 5 6 13 16 17 13 10 13 12 12 12 12 11 10 9 8 8 9 12 10 5 8 5 5 4 4 4 2 2 3 1 1 1 3 6 8 7
6 5 6 11 15 16 12 13 17 14 11 11 10 9 9 7 7 7 7 6 6 7 11 8 5 5 5 4 3 2 2 3 3 1 2 4 6 7
5 6 6 11 13 13 14 19 17 12 11 11 10 7 6 7 7 7 7 7 6 7 12 8 8 6 5 5 5 4 3 2 2 2 2 3 4 5
5 4 6 10 11 11 14 15 11 10 12 11 9 7 6 6 7 8 8 8 6 4 4 7 11 10 5 5 5 4 4 4 3 2 2 1 3 7
5 3 4 5 8 9 10 10 9 10 10 8 10 8 8 7 6 6 6 5 6 5 4 4 6 7 7 7 5 5 4 3 3 3 3 2 1 5
7 5 6 7 9 11 13 10 9 10 10 10 10 9 9 8 6 4 5 7 7 6 5 4 6 6 5 5 3 6 4 4 3 3 3 3 1 3
6 6 7 7 8 10 11 10 9 9 10 11 11 10 9 8 7 7 6 6 6 5 5 4 5 6 6 4 2 2 6 4 4 3 3 4 4 5
4 6 7 7 7 9 10 9 10 10 10 10 10 9 9 8 8 7 7 6 6 5 4 3 4 5 6 7 5 3 6 6 5 4 3 2 2 3
5 4 5 6 7 7 8 10 11 10 10 10 9 9 8 8 7 7 7 9 6 5 6 5 5 7 5 5 3 2 4 9 9 6 5 3 2 2
5 4 4 6 6 7 9 10 10 10 11 8 8 8 8 8 8 9 8 8 6 6 6 4 4 4 3 4 5 4 4 4 8 11 10 10 6 6
4 3 4 5 6 7 9 10 11 10 9 9 9 8 8 7 7 8 9 8 7 6 5 5 4 3 3 4 5 4 5 4 3 4 7 18 22 21
Wind_Direction
227 227 226 231 225 221 212 203 213 249 270 239 178 121 115 111 115 112 113 113 111 109 107 104 101 97 92 88 84 82 81 78 77 77 78 85 136 205
225 227 230 230 231 226 217 210 207 213 228 221 180 139 134 121 115 113 112 109 106 106 104 102 100 97 92 89 86 83 83 82 80 78 76 74 73 77
228 225 229 222 223 228 221 216 214 209 223 209 160 141 135 129 118 112 108 103 104 104 103 101 98 95 91 88 85 82 82 82 81 80 77 76 75 74
228 223 227 223 222 222 220 225 224 212 203 190 163 153 142 138 129 119 109 105 103 102 101 100 98 95 92 90 87 84 82 82 82 81 79 78 77 75
228 220 220 214 222 222 222 230 232 220 195 173 162 149 139 137 128 115 109 104 101 101 97 96 96 95 94 93 92 89 87 85 84 82 81 80 79 78
238 224 214 208 214 217 223 228 226 211 185 170 161 153 145 139 133 130 121 111 106 101 97 98 97 94 94 95 95 94 92 89 86 85 83 82 81 80
252 232 217 210 210 209 215 219 210 200 181 169 161 154 151 151 144 140 131 118 94 104 106 94 90 84 83 92 97 99 97 95 93 90 88 86 84 82
254 241 224 210 209 212 220 218 208 196 183 170 165 162 157 150 141 144 139 134 120 141 112 97 89 90 81 93 107 108 105 103 101 98 94 91 88 85
247 228 223 209 194 197 204 208 208 200 183 168 164 161 156 153 148 147 146 134 127 153 126 103 83 82 75 99 111 112 111 112 111 110 105 99 93 90
244 228 216 200 194 184 173 166 162 164 166 160 156 152 150 149 148 145 138 116 109 132 123 111 105 90 71 75 105 113 115 115 117 123 122 114 103 95
247 235 215 200 193 178 165 158 144 132 128 132 133 134 137 138 139 138 137 138 142 150 135 113 127 101 80 64 94 121 117 113 116 128 135 135 121 105
244 234 219 204 186 177 169 164 156 147 135 128 125 127 135 142 148 153 153 151 148 149 172 125 142 131 120 195 198 169 134 116 112 126 141 147 140 115
233 224 214 203 186 181 175 169 159 147 138 133 131 130 132 139 148 153 157 159 156 157 163 139 146 144 137 152 187 204 193 189 153 162 173 173 169 153
225 217 210 196 187 180 173 156 147 140 136 134 133 134 136 139 140 142 146 146 155 158 160 149 143 158 136 133 168 181 188 209 196 207 191 165 169 176
217 212 206 191 181 178 168 154 151 146 143 141 141 138 134 134 124 114 109 108 91 119 154 157 146 146 140 145 153 151 155 194 188 182 175 164 168 158
208 201 189 182 181 170 162 159 156 152 149 145 139 132 123 122 127 129 127 120 103 73 59 133 150 145 137 135 139 148 156 169 182 186 161 157 186 189
170 166 161 170 180 168 162 159 148 143 138 135 138 137 134 130 129 127 125 116 120 128 104 61 77 103 119 136 134 145 149 163 182 169 134 117 220 201
160 170 174 178 179 170 163 156 148 146 145 143 144 144 144 141 134 125 123 129 133 134 131 128 116 94 63 31 98 143 147 168 179 164 141 134 212 240
169 174 174 176 173 166 161 154 148 149 148 149 150 150 146 142 138 136 131 130 135 138 140 138 131 125 130 148 283 177 157 163 158 161 175 171 198 231
169 168 166 164 163 160 156 149 145 146 148 150 151 151 149 146 145 146 147 147 145 139 138 144 150 150 158 170 183 211 190 164 164 180 199 205 242 278
154 150 149 150 152 154 151 148 148 151 152 152 153 155 153 148 151 158 161 160 148 146 162 185 197 160 120 106 120 215 236 208 191 177 176 172 216 262
148 144 143 147 152 152 149 148 148 151 153 152 156 158 157 155 157 161 166 167 167 167 174 172 133 125 127 151 179 203 229 238 226 222 212 197 180 201
148 149 158 162 155 150 148 149 150 154 157 157 158 158 156 155 156 158 165 166 163 162 153 152 150 151 164 169 178 197 219 226 220 226 246 240 233 237
Height
1466 1465 1464 1464 1464 1464 1464 1464 1465 1464 1464 1464 1465 1466 1468 1470 1472 1474 1476 1478 1480 1481 1483 1484 1485 1487 1487 1488 1489 1490 1491 1492 1493 1495 1496 1498 1500 1503
1461 1461 1460 1459 1459 1459 1459 1460 1460 1461 1461 1461 1463 1464 1466 1467 1469 1472 1473 1475 1477 1479 1481 1482 1483 1484 1485 1486 1487 1488 1489 1490 1491 1492 1493 1494 1496 1498
1456 1455 1455 1454 1454 1454 1454 1454 1455 1455 1456 1457 1459 1461 1463 1465 1467 1469 1471 1473 1476 1478 1479 1481 1482 1483 1484 1485 1486 1487 1488 1489 1489 1490 1491 1492 1493 1494
1449 1449 1449 1449 1449 1449 1449 1449 1449 1450 1451 1452 1455 1457 1460 1462 1465 1467 1470 1472 1475 1477 1479 1481 1482 1483 1484 1485 1487 1487 1488 1489 1489 1490 1491 1491 1492 1493
1443 1443 1443 1443 1443 1443 1443 1443 1444 1444 1445 1447 1450 1454 1457 1460 1463 1466 1469 1471 1474 1476 1479 1481 1482 1484 1485 1486 1487 1488 1489 1490 1490 1491 1491 1492 1492 1493
1435 1436 1437 1437 1438 1438 1437 1437 1438 1438 1440 1442 1446 1450 1453 1457 1460 1464 1467 1471 1473 1476 1479 1481 1483 1485 1486 1488 1489 1490 1491 1491 1492 1492 1492 1493 1493 1493
1427 1428 1430 1431 1432 1432 1432 1432 1432 1433 1435 1437 1441 1445 1449 1453 1457 1461 1465 1469 1473 1477 1479 1482 1484 1486 1488 1490 1491 1492 1492 1493 1493 1494 1494 1494 1494 1494
1419 1421 1423 1424 1426 1426 1426 1426 1427 1428 1429 1432 1436 1440 1444 1449 1454 1459 1462 1466 1471 1477 1480 1483 1486 1488 1490 1491 1492 1493 1494 1494 1495 1495 1495 1495 1495 1496
1412 1414 1415 1418 1420 1421 1421 1421 1422 1423 1426 1428 1431 1436 1440 1445 1450 1456 1461 1466 1469 1475 1480 1483 1487 1489 1491 1493 1494 1494 1495 1495 1495 1496 1496 1496 1497 1497
1406 1407 1409 1411 1414 1415 1416 1417 1418 1419 1422 1425 1429 1433 1439 1444 1450 1455 1461 1467 1472 1478 1482 1483 1487 1490 1492 1494 1495 1495 1496 1496 1496 1497 1498 1498 1498 1498
1399 1400 1402 1405 1408 1410 1412 1413 1415 1417 1420 1424 1429 1433 1439 1444 1450 1455 1461 1466 1471 1477 1482 1484 1487 1490 1493 1495 1496 1497 1498 1498 1498 1499 1500 1500 1500 1500
1393 1394 1396 1399 1402 1405 1408 1410 1412 1415 1418 1423 1428 1433 1439 1444 1450 1455 1459 1464 1469 1476 1481 1484 1487 1490 1493 1496 1497 1498 1499 1499 1500 1501 1501 1501 1502 1502
1387 1388 1390 1393 1397 1401 1404 1408 1411 1414 1418 1422 1427 1433 1439 1444 1450 1456 1461 1465 1468 1473 1478 1482 1485 1488 1491 1494 1496 1498 1499 1500 1501 1501 1502 1502 1503 1503
1382 1383 1385 1388 1392 1397 1401 1406 1410 1413 1417 1422 1427 1433 1438 1444 1450 1456 1461 1465 1470 1473 1477 1480 1483 1487 1489 1492 1495 1497 1499 1500 1501 1501 1502 1502 1503 1503
1377 1378 1380 1383 1388 1393 1399 1404 1408 1412 1416 1421 1427 1433 1439 1445 1450 1455 1461 1465 1470 1474 1477 1480 1483 1486 1489 1491 1493 1495 1497 1499 1500 1501 1501 1502 1503 1503
1372 1373 1376 1379 1383 1389 1396 1402 1407 1411 1416 1421 1427 1434 1439 1445 1450 1454 1459 1464 1468 1472 1476 1480 1483 1485 1488 1490 1492 1494 1496 1498 1499 1500 1501 1501 1502 1502
1367 1369 1372 1375 1379 1385 1392 1399 1405 1411 1417 1423 1428 1434 1439 1444 1449 1454 1458 1462 1466 1470 1474 1478 1481 1485 1487 1489 1491 1493 1495 1497 1498 1499 1500 1500 1501 1501
1363 1365 1368 1372 1376 1382 1388 1396 1404 1410 1417 1423 1428 1434 1439 1444 1448 1453 1457 1461 1465 1469 1473 1476 1479 1483 1487 1490 1492 1492 1494 1496 1497 1498 1498 1499 1499 1499
1360 1362 1365 1370 1374 1380 1387 1395 1403 1410 1417 1423 1428 1433 1438 1443 1447 1451 1456 1460 1464 1467 1471 1475 1478 1481 1484 1487 1490 1492 1493 1494 1495 1496 1497 1498 1498 1498
1357 1360 1363 1368 1373 1380 1388 1396 1403 1411 1417 1423 1428 1433 1438 1442 1446 1450 1455 1459 1462 1466 1469 1473 1477 1480 1483 1486 1488 1490 1492 1493 1494 1495 1496 1496 1496 1496
1356 1359 1363 1368 1374 1382 1390 1398 1404 1411 1417 1422 1428 1433 1437 1442 1446 1450 1454 1458 1462 1465 1468 1472 1476 1480 1482 1485 1487 1488 1490 1492 1493 1493 1494 1494 1494 1493
1357 1360 1365 1371 1378 1385 1392 1399 1405 1411 1417 1422 1428 1432 1437 1442 1446 1450 1454 1458 1461 1465 1468 1472 1475 1477 1480 1482 1484 1486 1488 1489 1490 1491 1491 1492 1491 1490
1360 1364 1370 1376 1382 1388 1395 1401 1406 1412 1417 1423 1428 1432 1437 1441 1445 1450 1454 1457 1461 1464 1468 1470 1473 1475 1477 1480 1482 1484 1485 1486 1487 1487 1488 1487 1487 1486